Location: Coupvray
(48.8929°N, 2.7967°E)
Time: 22:20:43
(UTC+00:00)

X-37B - Pass Details

Date: 05 October 2020
Orbit: 382 x 392 km, 45.0° (Epoch: 15 October)

Event Time Altitude Azimuth Distance (km) Brightness Sun altitude
Rises 19:24:35 0° 247° (WSW) 2,262 5.2 -21.3°
Reaches altitude 10° 19:26:45 10° 239° (WSW) 1,407 3.9 -21.7°
Enters shadow 19:28:18 23° 220° (SW) 868 2.5 -21.9°
